CW4114 Weather Reports


Display with metric or nautical units.
time (UTC)temp
F
wind
direction
speed
MPH
gust
MPH
rain 1hr
in
rain 24hr
in
rain mn
in
humidity
%
barometer
mb
20260505233750 41 347 3.0 9.0 0.00 0.16 0.00 80 1006.2
20260505233249 42 300 3.0 9.0 0.00 0.16 0.00 79 1006.0
20260505232750 42 319 3.0 9.0 0.00 0.16 0.00 79 1006.0
20260505232516 42 334 3.0 7.0 0.00 0.16 0.00 79 1005.9
20260505231749 42 7 2.0 7.0 0.00 0.16 0.00 79 1006.0
20260505231249 42 358 2.0 9.0 0.00 0.17 0.00 78 1005.9
20260505230749 42 25 3.0 9.0 0.00 0.17 0.00 77 1005.9
20260505230249 43 25 4.0 9.0 0.00 0.17 0.00 74 1005.8
20260505225748 44 25 2.0 7.0 0.00 0.17 0.00 73 1005.7
20260505225248 44 17 2.0 15.0 0.00 0.17 0.00 71 1005.8
20260505224748 45 333 5.0 15.0 0.00 0.17 0.00 68 1005.6
20260505224248 46 2 4.0 11.0 0.00 0.17 0.00 66 1005.6
20260505223748 46 25 6.0 11.0 0.00 0.17 0.00 64 1005.4
20260505223248 47 329 4.0 10.0 0.00 0.17 0.00 62 1005.5
20260505222748 48 329 4.0 10.0 0.00 0.17 0.00 59 1005.5
20260505222516 50 351 4.0 15.0 0.00 0.17 0.00 53 1005.3
20260505221748 53 337 5.0 19.0 0.00 0.17 0.00 42 1005.3
20260505221247 54 282 10.0 19.0 0.00 0.17 0.00 35 1005.1
20260505220747 54 293 6.0 13.0 0.00 0.17 0.00 36 1005.1
20260505220248 54 322 8.0 19.0 0.00 0.17 0.00 36 1005.0
20260505215746 54 295 10.0 19.0 0.00 0.17 0.00 35 1005.0
20260505215247 54 290 8.0 18.0 0.00 0.17 0.00 36 1005.0
20260505215019 54 276 5.0 18.0 0.00 0.17 0.00 36 1004.9
20260505214246 53 264 8.0 18.0 0.00 0.17 0.00 36 1004.8
20260505213746 53 316 7.0 18.0 0.00 0.17 0.00 38 1004.9
20260505213247 53 314 9.0 21.0 0.00 0.17 0.00 37 1004.9
20260505212748 53 17 6.0 22.0 0.00 0.17 0.00 36 1004.9
20260505212247 53 2 7.0 22.0 0.00 0.17 0.00 35 1004.9
20260505211745 53 283 6.0 20.0 0.00 0.17 0.00 35 1004.9
20260505211245 53 309 10.0 20.0 0.00 0.17 0.00 37 1004.9
20260505211017 53 305 8.0 18.0 0.00 0.17 0.00 37 1004.9
20260505210509 53 296 11.0 20.0 0.00 0.17 0.00 36 1004.8
20260505210012 53 292 9.0 20.0 0.00 0.17 0.00 37 1004.9
20260505205245 53 254 8.0 17.0 0.00 0.17 0.00 37 1004.7
20260505204745 53 358 9.0 17.0 0.00 0.17 0.00 37 1004.7
20260505204245 53 274 5.0 21.0 0.00 0.17 0.00 37 1004.7
20260505203744 53 348 10.0 21.0 0.00 0.17 0.00 36 1004.5
20260505203516 53 323 8.0 17.0 0.00 0.17 0.00 36 1004.5
20260505202745 54 336 8.0 17.0 0.00 0.17 0.00 35 1004.4
20260505202244 54 283 8.0 22.0 0.00 0.17 0.00 38 1004.4
20260505201745 53 267 12.0 22.0 0.00 0.17 0.00 38 1004.3
20260505201512 53 340 10.0 20.0 0.00 0.17 0.00 36 1004.4
20260505200744 53 282 9.0 20.0 0.00 0.17 0.00 39 1004.3
20260505200244 53 300 8.0 16.0 0.00 0.17 0.00 38 1004.2
20260505195743 54 334 8.0 16.0 0.00 0.17 0.00 38 1004.1
20260505195243 55 350 8.0 17.0 0.00 0.17 0.00 39 1004.4
20260505194743 54 282 9.0 18.0 0.00 0.17 0.00 40 1004.3
20260505194243 54 350 10.0 18.0 0.00 0.17 0.00 37 1004.2
20260505193745 54 330 8.0 18.0 0.00 0.17 0.00 40 1004.1
20260505193240 54 286 7.0 19.0 0.00 0.17 0.00 39 1004.1
20260505192740 55 320 10.0 19.0 0.00 0.17 0.00 38 1004.1
20260505192240 55 276 9.0 19.0 0.00 0.17 0.00 42 1004.1
20260505191738 54 286 9.0 20.0 0.00 0.17 0.00 42 1004.1
20260505191510 55 323 10.0 20.0 0.00 0.17 0.00 43 1003.9
20260505190738 54 288 4.0 19.0 0.00 0.17 0.00 46 1003.8
20260505190239 53 290 8.0 19.0 0.00 0.17 0.00 47 1003.9
20260505185723 53 279 9.0 24.0 0.00 0.17 0.00 46 1003.9
20260505185223 53 275 13.0 24.0 0.00 0.17 0.00 47 1003.8
20260505184722 54 298 9.0 18.0 0.00 0.17 0.00 47 1003.8
20260505184216 53 275 6.0 15.0 0.00 0.17 0.00 52 1003.7
20260505183717 49 307 4.0 15.0 0.00 0.17 0.00 62 1003.4
20260505183217 47 0 4.0 10.0 0.00 0.17 0.00 65 1003.5
20260505182716 46 19 4.0 9.0 0.00 0.17 0.00 69 1003.4
20260505182218 45 351 2.0 9.0 0.00 0.17 0.00 67 1003.8
20260505181714 46 25 4.0 11.0 0.00 0.17 0.00 68 1003.5
20260505181214 46 358 3.0 11.0 0.00 0.17 0.00 68 1003.8
20260505180715 46 24 3.0 20.0 0.00 0.17 0.00 68 1003.7
20260505180219 45 21 7.0 20.0 0.00 0.17 0.00 69 1003.4
20260505175748 45 14 6.0 14.0 0.00 0.17 0.00 69 1003.5
20260505175020 45 341 6.0 14.0 0.00 0.17 0.00 71 1003.7
20260505174746 45 14 3.0 11.0 0.00 0.17 0.00 71 1003.4
20260505174019 45 351 5.0 10.0 0.00 0.17 0.00 72 1003.5
20260505173519 44 0 3.0 10.0 0.00 0.17 0.00 71 1003.7
20260505173016 45 340 3.0 10.0 0.00 0.17 0.00 73 1003.7
20260505172518 45 333 4.0 11.0 0.00 0.17 0.00 71 1003.7
20260505172015 45 355 4.0 11.0 0.00 0.17 0.00 74 1003.5
20260505171513 44 288 4.0 10.0 0.00 0.17 0.00 72 1003.8
20260505171012 44 42 4.0 10.0 0.00 0.17 0.00 71 1003.7
20260505170513 44 358 4.0 10.0 0.00 0.17 0.00 72 1003.7
20260505170015 44 357 5.0 11.0 0.00 0.17 0.00 73 1003.5
20260505165511 43 69 4.0 12.0 0.00 0.17 0.00 72 1003.7
20260505165009 44 334 5.0 12.0 0.00 0.17 0.00 72 1003.7
20260505164511 44 314 4.0 15.0 0.00 0.17 0.00 72 1003.8
20260505164010 44 355 4.0 15.0 0.00 0.17 0.00 71 1003.5
20260505163507 44 250 6.0 12.0 0.00 0.17 0.00 70 1003.4
20260505163009 45 329 6.0 13.0 0.00 0.17 0.00 68 1003.4
20260505162505 46 327 7.0 13.0 0.00 0.17 0.00 63 1003.5
20260505162247 48 302 4.0 15.0 0.00 0.17 0.00 60 1003.4
20260505161505 49 357 6.0 15.0 0.00 0.17 0.00 55 1003.2
20260505161006 49 347 8.0 15.0 0.00 0.17 0.00 58 1003.3
20260505160732 48 343 5.0 15.0 0.00 0.17 0.00 56 1003.5
20260505153002 47 257 6.0 17.0 0.00 0.17 0.00 58 1003.3
20260505152502 47 286 8.0 17.0 0.00 0.17 0.00 58 1003.3
20260505152004 47 290 7.0 15.0 0.00 0.17 0.00 65 1003.4
20260505151502 47 265 8.0 16.0 0.00 0.17 0.00 66 1003.4
20260505151003 47 330 5.0 16.0 0.00 0.17 0.00 67 1003.2
20260505150502 47 344 7.0 14.0 0.00 0.17 0.00 68 1003.2
20260505150223 46 285 8.0 14.0 0.00 0.17 0.00 70 1003.2
20260505140610 43 27 2.0 9.0 0.00 0.17 0.00 79 1002.2
20260505124943 44 300 6.0 12.0 0.00 0.17 0.00 70 1001.3
20260505124444 44 327 6.0 12.0 0.00 0.17 0.00 70 1001.3
20260505123943 44 302 3.0 10.0 0.00 0.17 0.00 72 1001.5
20260505123443 44 7 5.0 10.0 0.00 0.17 0.00 73 1001.3
20260505122943 44 306 3.0 10.0 0.00 0.17 0.00 73 1001.4
20260505122439 43 324 3.0 7.0 0.00 0.17 0.00 75 1001.3
20260505122215 43 296 4.0 9.0 0.00 0.17 0.00 75 1001.2
20260505121433 42 293 1.0 9.0 0.00 0.17 0.00 75 1001.2
20260505120935 42 313 5.0 9.0 0.00 0.17 0.00 76 1001.1
20260505120436 42 257 4.0 7.0 0.00 0.17 0.00 76 1001.1
20260505115936 42 275 3.0 10.0 0.00 0.17 0.00 76 1001.2
20260505115433 42 344 2.0 10.0 0.00 0.17 0.00 76 1001.1
20260505114946 42 14 3.0 9.0 0.00 0.17 0.00 76 1000.9
20260505113932 42 298 5.0 9.0 0.00 0.17 0.00 77 1000.9
20260505113432 41 327 4.0 9.0 0.00 0.17 0.00 78 1000.8
20260505112932 41 314 5.0 10.0 0.00 0.17 0.00 79 1000.8
20260505112433 41 316 4.0 10.0 0.00 0.17 0.00 80 1000.8
20260505111937 41 303 4.0 9.0 0.00 0.17 0.00 80 1000.7
20260505111432 41 286 5.0 7.0 0.00 0.17 0.00 81 1000.5
20260505111202 40 278 4.0 7.0 0.00 0.17 0.00 82 1000.4
20260505110432 40 281 4.0 6.0 0.00 0.17 0.00 82 1000.3
20260505101933 40 272 4.0 7.0 0.00 0.17 0.00 82 999.5
20260505101433 40 285 5.0 7.0 0.00 0.17 0.00 81 999.5
20260505100933 40 258 4.0 7.0 0.00 0.17 0.00 81 999.5
20260505100433 41 288 4.0 7.0 0.00 0.17 0.00 81 999.4
20260505095933 41 309 3.0 7.0 0.00 0.17 0.00 80 999.3
20260505095706 41 293 4.0 7.0 0.00 0.17 0.00 80 999.3
20260505094933 41 316 4.0 5.0 0.00 0.17 0.00 79 999.1
20260505094432 41 290 4.0 5.0 0.00 0.17 0.00 79 999.2
20260505093932 41 337 3.0 6.0 0.00 0.17 0.00 79 999.1
20260505093710 42 303 3.0 7.0 0.00 0.17 0.00 78 999.1
20260505092933 42 341 3.0 7.0 0.00 0.17 0.00 79 999.1
20260505092433 42 285 3.0 10.0 0.00 0.17 0.00 78 998.9
20260505091933 42 234 3.0 10.0 0.00 0.17 0.00 78 999.0
20260505091432 42 298 2.0 10.0 0.00 0.17 0.00 78 998.8
20260505090933 42 305 4.0 15.0 0.00 0.17 0.00 77 998.7
20260505090700 42 314 4.0 15.0 0.00 0.17 0.00 77 998.7
20260505085933 43 286 5.0 11.0 0.00 0.17 0.00 77 998.6
20260505085433 43 326 5.0 9.0 0.00 0.17 0.00 76 998.6
20260505084933 43 271 4.0 12.0 0.00 0.17 0.00 76 998.6
20260505084433 43 300 5.0 12.0 0.00 0.17 0.00 77 998.5
20260505084200 43 279 3.0 7.0 0.00 0.17 0.00 77 998.5
20260505083432 43 285 5.0 9.0 0.00 0.17 0.00 76 998.5
20260505082933 44 271 2.0 10.0 0.00 0.17 0.00 76 998.5
20260505082432 44 306 3.0 11.0 0.00 0.17 0.00 77 998.6
20260505081932 44 309 5.0 11.0 0.00 0.17 0.00 78 998.5
20260505081433 44 295 5.0 9.0 0.00 0.17 0.00 78 998.4
20260505080933 44 279 3.0 7.0 0.00 0.17 0.00 77 998.4
20260505080430 44 298 3.0 7.0 0.00 0.18 0.00 77 998.4
20260505075933 45 299 4.0 9.0 0.00 0.18 0.00 76 998.3
20260505075425 45 331 4.0 11.0 0.00 0.18 0.00 76 998.2
20260505075148 45 295 4.0 15.0 0.00 0.18 0.00 76 998.2
20260505074422 45 290 4.0 15.0 0.00 0.18 0.00 77 998.2
20260505073921 45 306 3.0 7.0 0.00 0.18 0.00 78 998.2
20260505073422 45 268 4.0 7.0 0.00 0.18 0.00 78 998.1
20260505072922 45 326 4.0 7.0 0.00 0.18 0.00 78 998.1
20260505072424 45 269 4.0 7.0 0.00 0.18 0.00 78 998.1
20260505071921 45 290 2.0 7.0 0.00 0.18 0.00 78 998.2
20260505071421 45 292 3.0 9.0 0.00 0.18 0.00 78 998.1
20260505070923 45 314 4.0 9.0 0.00 0.18 0.00 78 998.1
20260505070421 45 324 4.0 9.0 0.00 0.18 0.00 78 997.9
20260505065921 45 326 3.0 9.0 0.00 0.18 0.00 79 998.1
20260505065421 45 300 4.0 9.0 0.00 0.18 0.00 82 998.1
20260505064919 45 265 3.0 9.0 0.00 0.18 0.00 82 997.9
20260505064421 45 307 3.0 7.0 0.00 0.18 0.00 83 998.1
20260505063918 45 302 4.0 7.0 0.00 0.18 0.00 83 998.1
20260505063418 45 310 3.0 6.0 0.00 0.18 0.00 83 998.1
20260505063147 45 257 2.0 5.0 0.00 0.18 0.00 83 997.9
20260505062418 45 305 3.0 5.0 0.00 0.18 0.00 83 998.1
20260505061919 45 276 3.0 6.0 0.00 0.18 0.00 82 998.1
20260505061418 46 292 2.0 6.0 0.00 0.18 0.00 82 998.1
20260505061145 46 279 2.0 5.0 0.00 0.18 0.00 82 997.9
20260505060418 46 274 3.0 5.0 0.00 0.18 0.00 82 998.1
20260505055917 46 306 2.0 6.0 0.00 0.18 0.00 82 997.9
20260505055417 46 279 2.0 6.0 0.00 0.18 0.00 82 998.1
20260505054917 46 276 2.0 7.0 0.00 0.18 0.00 83 998.1
20260505054419 45 282 2.0 7.0 0.00 0.18 0.00 84 997.7
20260505053918 45 330 3.0 7.0 0.00 0.18 0.00 86 997.6
20260505053416 45 276 2.0 7.0 0.00 0.18 0.00 87 997.7
20260505052917 45 293 3.0 6.0 0.00 0.18 0.00 88 997.6
20260505052417 45 290 2.0 6.0 0.00 0.18 0.00 88 997.6
20260505051916 45 257 3.0 6.0 0.00 0.18 0.00 89 997.6
20260505051416 45 341 2.0 5.0 0.00 0.18 0.00 89 997.5
20260505050916 45 295 1.0 5.0 0.00 0.18 0.00 89 997.4
20260505050642 45 298 2.0 4.0 0.00 0.18 0.00 89 997.4
20260505041644 45 296 2.0 7.0 0.00 0.18 0.00 91 996.6
20260505041146 45 307 2.0 7.0 0.00 0.18 0.00 91 996.5
20260505040414 45 286 2.0 6.0 0.00 0.18 0.00 91 996.4
20260505035915 45 319 4.0 6.0 0.00 0.18 0.18 91 996.2
20260505035642 45 358 3.0 5.0 0.00 0.18 0.18 91 996.0
20260505034915 45 0 3.0 5.0 0.00 0.18 0.18 91 995.9
20260505034416 45 326 2.0 5.0 0.00 0.18 0.18 91 995.9
20260505033914 45 358 2.0 5.0 0.00 0.18 0.18 91 995.9
20260505033416 45 300 1.0 5.0 0.00 0.18 0.18 91 995.9
20260505032913 45 343 2.0 4.0 0.00 0.18 0.18 91 995.9
20260505032640 45 348 2.0 4.0 0.00 0.18 0.18 91 995.9
20260505031913 45 331 1.0 4.0 0.00 0.18 0.18 91 996.0
20260505031412 45 353 2.0 4.0 0.00 0.18 0.18 92 996.0
20260505030913 45 11 1.0 3.0 0.00 0.18 0.18 92 996.0
20260505030412 45 2 1.0 3.0 0.00 0.18 0.18 92 996.2
20260505025912 45 350 1.0 4.0 0.00 0.18 0.18 92 996.2
20260505025410 45 330 2.0 4.0 0.00 0.18 0.18 92 996.2
20260505024911 45 344 0.0 6.0 0.01 0.18 0.18 92 996.3
20260505024412 45 21 3.0 6.0 0.01 0.18 0.18 93 996.4
20260505024157 45 272 2.0 4.0 0.01 0.18 0.18 93 996.7
20260505023634 45 305 1.0 4.0 0.01 0.18 0.18 92 996.2
20260505022904 45 336 2.0 4.0 0.01 0.18 0.18 92 996.3
20260505022406 45 7 2.0 4.0 0.01 0.18 0.18 93 996.2
20260505021906 45 334 2.0 4.0 0.01 0.18 0.18 92 996.3
20260505021403 45 358 2.0 4.0 0.02 0.18 0.18 92 996.0
20260505020903 45 348 3.0 4.0 0.02 0.18 0.18 92 996.0
20260505020401 45 348 3.0 6.0 0.02 0.18 0.18 92 996.0
20260505015901 45 345 3.0 6.0 0.02 0.16 0.18 93 996.3
20260505015629 45 337 2.0 4.0 0.03 0.16 0.17 93 996.1
20260505014859 45 351 1.0 4.0 0.02 0.16 0.17 93 995.8
20260505014358 45 333 2.0 5.0 0.03 0.16 0.17 93 996.1
20260505014135 45 338 2.0 6.0 0.04 0.16 0.17 93 995.6
20260505013357 45 337 2.0 6.0 0.04 0.16 0.17 93 996.2
20260505012855 45 340 3.0 6.0 0.05 0.16 0.17 93 996.1
20260505012352 45 0 3.0 5.0 0.05 0.16 0.17 93 995.7
20260505011853 45 347 2.0 4.0 0.06 0.16 0.17 92 995.4
20260505011353 45 358 2.0 5.0 0.05 0.16 0.16 92 995.2
20260505010901 45 28 3.0 9.0 0.06 0.16 0.16 92 995.4
20260505010111 45 322 4.0 12.0 0.09 0.08 0.16 92 995.9
20260505005350 44 358 2.0 12.0 0.10 0.08 0.15 92 995.8
20260505004847 45 348 4.0 11.0 0.13 0.08 0.15 91 995.6
20260505004346 45 333 6.0 11.0 0.12 0.08 0.14 91 995.5
20260505003850 45 337 6.0 11.0 0.11 0.08 0.13 91 995.4
20260505003349 45 336 5.0 13.0 0.11 0.09 0.13 91 995.3
20260505002846 46 333 5.0 13.0 0.10 0.09 0.12 92 995.2
20260505002341 46 348 4.0 9.0 0.10 0.11 0.12 92 994.9
20260505001841 46 0 4.0 10.0 0.09 0.13 0.11 92 995.1
20260505001336 46 337 4.0 10.0 0.10 0.15 0.11 91 995.1
20260505000849 46 24 4.0 7.0 0.09 0.17 0.10 91 994.9
20260505000334 46 345 4.0 6.0 0.08 0.18 0.09 90 994.9
20260504235604 46 334 2.0 9.0 0.04 0.14 0.05 89 994.6
20260504234833 46 1 2.0 9.0 0.01 0.17 0.02 88 994.5
20260504234336 46 334 3.0 5.0 0.01 0.21 0.02 87 994.1